Wind_Speed
27 33 42 37 44 47 41 39 40 47 50 53 60 68 56 69 61 78 82 42 46 29 22 28 32 46 36 39 47 48 40 38 33 33 33 20 13 26 22 21 23 21 15 18 21 14 13 20 19 21 16 15 15 15
27 32 37 39 39 35 36 40 41 44 44 54 55 68 49 66 56 71 87 48 34 25 28 26 33 34 37 39 46 43 44 37 32 33 34 24 16 26 26 22 20 21 22 16 12 6 10 8 15 15 14 11 11 12
34 35 35 34 32 32 36 40 36 36 36 47 69 51 54 52 49 69 81 47 50 20 36 27 31 33 36 41 44 40 36 40 34 31 30 22 18 22 26 25 21 23 16 18 14 16 16 13 14 15 14 12 13 15
32 32 33 33 33 35 36 35 36 39 37 54 44 51 55 44 41 71 76 59 43 10 20 32 30 33 32 36 33 41 35 33 31 29 33 32 26 30 29 23 25 22 23 23 21 19 19 19 18 18 16 16 18 18
40 40 41 42 42 39 37 36 37 40 42 47 48 53 47 35 53 66 67 49 51 26 18 26 34 34 26 32 30 32 34 38 33 31 30 27 30 28 29 25 21 25 23 27 26 21 20 20 20 21 21 21 20 20
36 38 39 39 38 38 40 40 41 44 42 46 49 44 41 39 65 65 69 65 33 33 8 19 29 27 29 31 37 31 35 33 27 30 33 21 27 26 23 25 24 22 23 23 21 19 19 21 22 23 24 23 23 23
33 33 34 35 35 35 35 37 38 37 37 37 38 35 32 39 62 77 60 49 30 31 12 11 19 24 35 34 34 30 23 21 27 36 29 17 23 21 20 20 20 23 23 22 18 17 19 22 23 24 24 25 25 25
28 26 26 26 26 28 30 32 33 31 32 29 32 33 32 35 52 63 38 30 32 35 26 6 14 31 30 30 27 24 18 15 17 21 30 35 20 19 18 23 22 20 23 22 18 18 21 23 24 23 24 25 25 22
20 23 21 19 21 24 26 27 31 32 28 30 28 27 31 51 60 63 28 22 37 23 10 11 19 27 28 30 29 25 21 19 17 23 23 22 25 22 30 26 25 25 25 21 19 21 24 24 23 23 25 23 19 20
23 24 25 22 26 28 30 35 33 30 31 38 34 31 30 46 50 45 4 15 25 17 8 12 23 21 30 31 28 25 22 19 18 25 23 27 29 30 27 25 24 23 23 23 23 25 23 21 21 24 21 20 20 17
25 26 24 23 28 27 30 31 37 44 42 39 32 26 29 43 47 47 8 11 11 12 18 15 17 17 19 21 24 19 16 15 13 17 21 20 31 31 30 27 25 25 27 27 27 24 23 22 21 21 21 19 17 14
34 34 40 41 43 43 43 47 46 51 36 35 35 33 35 26 12 13 7 11 8 11 20 22 18 16 16 17 16 18 13 10 8 17 18 15 22 24 27 30 30 30 29 28 26 24 21 20 18 16 14 14 13 11
41 40 44 44 51 53 53 46 40 31 44 37 29 27 27 8 6 7 6 9 11 19 20 26 24 19 16 18 15 11 13 16 8 10 8 13 17 23 27 31 31 30 29 26 22 18 16 14 14 14 12 12 11 10
40 38 39 35 44 49 46 41 40 31 29 28 9 12 6 7 6 12 17 15 13 15 16 17 13 13 13 16 7 7 11 12 11 8 11 9 10 12 12 14 20 21 20 17 16 15 14 14 15 14 13 12 11 10
33 32 40 43 41 46 40 46 38 30 22 12 6 6 10 12 13 16 18 16 17 16 17 18 13 8 9 4 5 6 7 3 6 10 13 9 13 18 22 18 13 14 15 15 15 15 15 16 15 14 12 10 10 11
35 32 35 34 39 34 26 26 28 21 13 8 3 10 12 10 10 13 15 15 15 16 17 18 11 5 7 4 7 6 7 7 8 9 13 13 11 9 8 11 14 15 15 15 16 17 16 15 13 11 10 11 12 14
18 31 32 31 35 32 26 24 25 20 8 7 9 12 14 14 14 16 16 15 12 15 21 9 10 7 6 6 7 6 7 9 9 11 10 5 7 11 13 12 12 13 15 16 15 14 13 12 11 11 12 14 16 18
17 18 17 23 26 25 26 26 23 7 9 16 17 16 15 14 12 13 14 14 15 16 16 12 5 7 4 4 5 8 7 9 8 6 6 7 11 9 9 8 8 11 12 13 14 13 12 11 12 14 16 18 20 23
11 14 15 17 19 23 21 15 13 10 14 16 18 16 14 15 15 14 14 15 18 18 17 14 6 8 7 6 5 6 8 9 8 11 11 10 9 7 7 9 9 10 13 13 12 12 12 14 16 18 19 21 24 27
5 5 8 12 19 18 9 9 10 13 17 17 15 15 17 16 15 13 12 12 12 14 13 8 8 9 7 8 9 9 10 8 7 9 11 11 10 9 8 8 8 8 9 10 11 13 14 16 17 19 23 27 29 29
11 8 8 12 17 13 10 13 10 18 21 18 17 16 15 12 13 13 13 12 11 10 17 15 12 12 11 11 11 11 11 8 8 6 4 6 8 8 7 6 7 9 11 12 13 15 17 18 22 26 27 28 29 32
12 14 11 8 13 7 8 10 16 20 19 21 17 17 15 13 11 10 12 13 19 22 20 17 13 11 10 10 10 8 8 8 6 5 5 6 6 8 9 10 12 14 15 16 17 19 23 27 28 28 29 31 32 33
7 8 6 9 8 7 16 20 23 19 13 21 22 18 18 19 17 15 15 22 22 19 17 16 14 11 6 3 2 3 4 4 4 5 7 9 10 10 11 13 14 16 18 21 23 24 26 27 29 31 32 33 34 36
4 2 4 4 6 11 13 13 15 14 20 17 16 17 15 13 13 14 20 19 15 12 9 10 11 10 9 7 5 5 7 7 7 8 9 11 12 13 16 18 19 20 21 23 24 26 29 30 31 32 33 35 37 38
2 3 4 6 8 11 11 12 13 14 13 15 15 12 12 8 9 13 15 14 13 10 8 7 6 7 7 8 8 9 9 10 10 11 12 14 14 15 16 18 19 21 23 25 27 28 29 31 32 35 36 37 38 39
3 4 4 5 7 6 7 10 11 16 15 11 8 11 10 9 6 8 11 11 9 7 6 5 6 6 7 8 9 10 11 12 13 13 13 14 15 17 18 20 21 23 24 26 27 30 32 33 34 36 37 39 40 40
8 10 11 10 11 12 14 14 15 13 12 11 14 10 6 4 5 10 11 8 6 5 4 3 3 4 5 5 6 6 7 8 10 12 13 15 17 19 20 21 22 25 27 28 30 32 34 36 38 39 39 40 40 39
14 14 14 13 11 11 15 14 11 7 7 9 8 5 3 5 11 11 9 7 5 3 3 2 2 2 3 4 4 5 6 8 10 12 14 17 19 22 23 24 26 27 29 31 33 35 37 38 37 37 37 37 36 37
15 13 11 11 10 11 12 13 12 11 9 8 8 8 11 12 10 9 7 6 5 3 3 2 2 4 5 7 8 10 12 14 15 16 17 18 20 22 24 27 29 32 35 36 36 35 36 36 36 36 36 36 35 35
11 8 8 8 8 13 12 10 9 9 8 7 6 8 9 9 8 8 7 5 2 0 2 4 7 9 10 11 12 13 14 15 17 19 21 23 25 28 30 32 32 32 33 34 34 34 34 34 35 35 35 34 34 34
14 13 11 10 14 15 13 11 10 9 8 7 7 7 6 5 4 3 3 2 4 5 6 7 7 7 7 8 10 12 15 18 20 23 26 28 29 30 31 32 32 32 32 33 33 33 34 34 34 34 34 33 32 32
8 8 7 6 8 8 8 9 5 4 3 4 3 2 2 2 3 3 3 3 4 4 3 4 6 7 9 11 14 16 20 22 23 24 26 27 28 29 29 30 31 32 33 34 34 34 35 35 35 34 33 32 31 30
9 7 5 4 4 4 3 2 2 2 1 1 1 2 3 3 2 2 1 1 1 2 4 6 8 10 13 17 19 19 20 22 22 23 24 26 28 30 31 31 32 32 33 33 33 34 33 33 32 31 30 29 28 28
Wind_Direction
141 151 157 164 173 177 180 184 185 190 192 192 193 201 183 184 190 189 190 184 187 195 189 187 208 213 209 210 208 204 205 209 211 211 214 209 206 207 213 206 212 218 210 217 229 230 259 254 225 220 242 253 256 250
140 143 152 159 163 169 180 181 181 189 193 191 194 196 177 181 187 188 195 189 190 175 184 185 198 205 213 215 208 208 212 211 215 213 217 221 219 202 207 201 207 213 223 227 218 229 234 228 230 238 251 262 263 258
134 143 151 158 166 170 172 173 180 182 184 189 191 179 178 180 187 188 191 180 195 174 195 203 205 205 203 209 217 212 212 214 222 226 203 206 227 205 205 211 213 216 214 225 225 232 241 244 249 256 261 263 260 269
120 127 133 138 143 149 158 161 155 155 171 178 172 168 176 180 189 184 187 186 180 176 188 198 211 212 211 206 209 221 222 223 224 222 226 232 215 224 218 220 217 219 213 222 223 232 236 243 250 254 253 257 263 276
111 114 119 122 123 132 137 143 147 150 155 157 165 171 173 177 183 190 193 191 179 186 202 206 203 210 210 205 200 207 211 217 219 211 211 211 220 217 217 215 215 216 219 218 231 242 250 256 258 257 259 264 265 270
122 125 127 130 136 139 142 144 147 152 154 161 167 169 172 178 185 190 195 183 182 179 161 204 210 211 214 205 208 220 209 206 202 199 201 212 210 203 204 214 222 225 225 232 244 252 260 256 259 260 261 264 267 272
130 133 136 140 142 145 149 154 157 158 160 167 176 175 168 177 187 194 194 190 171 181 198 204 188 192 189 192 198 204 209 226 222 218 223 218 210 205 215 226 235 233 229 228 243 253 252 254 255 257 259 263 268 272
141 138 137 139 144 150 156 161 164 164 162 159 172 170 172 168 189 196 184 185 173 178 218 202 187 168 170 175 182 191 194 192 213 222 236 230 233 227 234 237 235 235 233 234 249 262 259 256 258 260 258 260 264 269
162 153 151 147 146 157 153 159 158 156 156 163 153 138 154 176 186 184 166 169 176 178 188 190 178 177 176 188 202 206 210 205 214 217 217 218 231 220 229 235 239 246 242 245 256 259 254 253 255 258 260 262 268 273
183 189 184 170 166 161 155 155 157 156 156 151 143 146 167 183 190 170 172 162 171 153 153 191 188 184 192 200 201 203 209 213 225 232 237 234 234 242 244 238 234 241 244 248 253 253 255 255 256 257 260 263 266 265
123 131 145 163 171 159 154 165 162 155 149 130 135 156 169 186 194 193 229 176 134 158 181 165 167 184 190 207 216 218 217 218 224 226 220 230 236 240 244 246 248 252 236 239 245 251 257 257 252 253 255 255 251 251
109 116 119 123 127 138 153 150 141 127 115 135 138 162 179 175 168 195 167 129 147 170 181 190 188 195 201 202 201 208 208 204 222 218 210 232 239 236 238 239 240 236 242 248 251 256 255 254 250 249 246 240 240 243
104 107 112 115 124 121 113 110 118 104 122 141 149 144 165 159 148 149 162 154 149 155 166 185 191 195 196 211 212 202 204 208 204 191 200 221 226 226 223 225 231 240 245 249 257 259 254 238 234 233 242 235 240 247
114 116 113 109 126 127 127 116 128 143 163 156 127 110 128 124 137 149 149 143 139 152 157 168 179 160 170 178 172 174 181 165 179 192 205 229 229 207 233 242 240 237 244 247 242 234 229 225 223 228 226 229 240 252
107 126 130 125 136 137 120 134 143 149 145 164 64 95 98 110 113 127 131 132 138 149 162 162 164 157 159 143 170 173 143 135 202 202 188 209 208 222 228 229 227 233 232 229 225 222 220 218 217 223 232 240 250 261
132 135 124 136 152 156 140 126 137 139 144 131 80 118 118 140 142 155 156 150 156 161 162 174 176 179 188 205 189 179 172 187 193 199 216 222 216 212 221 236 236 224 217 215 212 211 215 222 229 234 242 250 261 272
121 156 152 141 147 150 147 158 163 159 156 132 133 148 171 172 163 164 163 164 167 168 172 162 180 190 183 200 188 180 187 188 178 173 168 219 247 251 230 211 204 206 205 208 214 221 228 233 240 247 254 263 271 281
119 114 134 162 164 172 170 177 172 149 154 146 147 150 149 148 149 155 163 168 182 192 191 209 199 190 178 166 179 195 186 184 194 245 268 239 225 210 193 188 195 212 220 223 229 236 242 247 254 259 265 273 282 290
122 116 124 142 164 181 179 177 183 129 139 152 155 163 175 180 182 193 194 195 194 198 207 198 199 203 201 185 183 199 205 213 220 208 196 191 183 185 199 214 221 230 232 238 248 252 255 259 261 267 272 280 291 297
121 133 142 144 155 158 141 144 149 138 146 143 157 164 171 166 168 177 178 186 195 199 193 172 148 144 160 166 157 160 163 158 166 173 172 179 190 204 210 215 232 234 241 252 263 269 270 265 265 273 284 292 294 296
68 99 145 159 160 159 142 143 128 142 141 148 155 165 155 157 172 178 188 188 190 173 127 123 125 126 128 136 137 139 138 131 138 138 173 203 212 223 243 259 270 275 274 276 276 273 268 264 272 282 288 289 292 295
62 64 62 130 173 144 129 140 150 148 146 148 151 151 141 141 153 164 161 178 136 117 116 122 126 124 129 125 127 133 143 158 179 193 207 221 242 257 268 275 277 277 278 278 275 273 274 278 282 286 288 291 293 295
64 78 77 88 94 85 121 134 136 133 138 147 145 136 134 129 128 136 112 115 121 125 130 137 143 149 149 124 124 157 170 191 216 234 243 251 256 260 268 276 278 279 278 278 279 279 277 279 284 287 289 291 293 295
35 57 66 71 85 116 132 133 130 129 142 146 146 131 126 124 130 126 124 127 124 125 140 158 168 179 186 189 210 249 258 261 258 258 262 261 263 267 274 279 283 284 283 282 281 280 281 283 285 287 289 293 297 298
45 58 83 90 116 135 138 139 133 140 135 136 135 131 136 144 139 135 143 145 145 150 160 173 187 203 218 226 232 239 245 255 262 262 262 265 269 272 277 280 282 282 281 281 281 283 285 287 290 294 296 296 298 300
71 68 79 95 114 133 132 136 140 141 146 140 132 135 139 136 116 135 155 164 167 174 189 209 227 243 251 256 263 267 273 277 279 278 277 277 279 282 285 286 287 287 287 288 289 291 293 295 296 297 299 301 301 302
88 79 85 96 115 124 120 121 128 136 125 119 127 133 134 123 112 147 147 150 158 168 187 213 240 256 266 273 275 277 279 283 286 289 291 292 292 293 293 293 292 292 293 294 296 298 299 300 301 301 301 302 302 302
102 101 101 97 102 106 120 124 117 101 104 132 141 132 124 129 139 135 137 135 130 120 102 81 56 19 357 342 329 320 312 305 300 297 296 295 296 298 299 300 301 302 301 300 301 300 301 301 302 302 302 302 302 302
99 103 107 106 108 114 102 99 97 104 106 114 121 119 124 125 128 129 125 114 104 97 84 48 349 333 323 316 310 307 305 304 303 301 299 299 299 301 302 303 304 304 304 304 305 306 306 306 307 306 306 306 305 305
91 99 121 117 124 103 96 94 100 99 97 99 104 120 126 130 132 130 127 124 130 253 296 301 306 309 310 310 311 309 309 310 311 311 311 311 310 309 310 309 310 310 311 311 310 310 309 309 309 309 309 309 308 307
91 96 98 105 108 104 102 98 94 89 86 90 99 104 108 117 137 154 171 214 260 279 294 300 302 306 312 316 317 318 319 319 316 314 313 313 314 315 315 315 314 314 314 313 313 313 313 313 312 311 311 310 309 307
79 81 80 95 103 102 104 113 97 91 87 84 98 126 157 175 204 243 244 251 269 285 303 318 322 326 328 323 320 319 315 315 317 317 316 316 317 317 317 317 316 316 316 316 315 315 314 314 314 313 313 312 311 310
77 77 74 86 98 97 83 40 38 9 331 307 275 239 238 225 214 186 176 250 292 311 320 320 319 321 318 315 317 319 319 320 321 321 322 322 321 320 320 320 319 319 318 318 318 318 318 318 318 318 317 316 315 313
Height
2688 2698 2712 2726 2740 2755 2770 2784 2797 2809 2820 2833 2843 2852 2866 2884 2898 2912 2924 2937 2952 2958 2965 2970 2979 2984 2995 2999 3003 3011 3023 3025 3030 3037 3041 3044 3044 3047 3051 3053 3055 3059 3063 3064 3068 3067 3067 3065 3067 3067 3067 3068 3069 3070
2704 2713 2724 2736 2749 2762 2773 2785 2797 2808 2818 2830 2841 2852 2867 2883 2897 2913 2919 2935 2945 2952 2962 2966 2972 2978 2986 2997 3002 3009 3014 3019 3024 3031 3032 3037 3041 3041 3044 3047 3050 3054 3055 3057 3061 3060 3060 3061 3062 3064 3064 3064 3066 3067
2721 2728 2737 2747 2757 2767 2776 2788 2798 2809 2817 2828 2840 2856 2871 2884 2897 2908 2920 2935 2945 2952 2961 2966 2971 2974 2979 2988 2998 3004 3009 3015 3019 3025 3031 3035 3037 3037 3039 3042 3045 3047 3050 3052 3055 3055 3055 3058 3059 3060 3061 3061 3062 3061
2735 2741 2747 2755 2763 2772 2782 2792 2802 2812 2824 2834 2846 2860 2874 2886 2897 2911 2919 2931 2944 2951 2958 2964 2968 2972 2976 2983 2992 3000 3009 3013 3016 3022 3024 3026 3032 3035 3035 3037 3039 3041 3043 3047 3048 3048 3050 3053 3054 3055 3056 3057 3057 3058
2753 2757 2762 2769 2776 2785 2793 2802 2811 2819 2829 2840 2853 2865 2878 2887 2898 2910 2920 2932 2947 2957 2957 2960 2964 2969 2974 2981 2990 2998 3002 3005 3010 3014 3019 3024 3028 3029 3029 3033 3034 3034 3036 3039 3039 3043 3045 3047 3048 3050 3051 3051 3051 3051
2769 2774 2778 2784 2791 2797 2805 2813 2821 2829 2838 2848 2859 2869 2877 2886 2898 2909 2916 2928 2939 2948 2956 2959 2963 2966 2972 2978 2986 2989 2992 2999 3004 3007 3011 3016 3020 3022 3023 3025 3029 3032 3033 3037 3038 3039 3041 3043 3044 3045 3045 3045 3044 3044
2781 2785 2790 2795 2800 2806 2814 2821 2829 2837 2845 2854 2863 2872 2879 2887 2897 2905 2922 2938 2943 2948 2955 2959 2959 2963 2966 2974 2982 2988 2991 2993 2999 3003 3008 3012 3019 3016 3016 3018 3023 3026 3029 3032 3034 3035 3037 3038 3038 3039 3039 3038 3037 3036
2789 2794 2798 2804 2809 2815 2821 2828 2835 2843 2852 2860 2868 2875 2882 2891 2903 2913 2928 2934 2942 2951 2950 2952 2954 2957 2963 2970 2977 2983 2987 2992 2995 2996 3001 3006 3010 3011 3011 3014 3019 3022 3024 3026 3027 3029 3030 3031 3031 3031 3031 3031 3030 3030
2796 2800 2804 2810 2815 2820 2827 2834 2842 2850 2857 2866 2874 2881 2888 2896 2906 2919 2928 2933 2941 2943 2946 2948 2950 2956 2961 2968 2974 2981 2985 2989 2995 2997 3001 3004 3005 3003 3006 3011 3014 3015 3017 3019 3021 3023 3023 3024 3024 3024 3023 3024 3024 3023
2796 2800 2806 2812 2817 2824 2831 2839 2846 2854 2863 2871 2875 2885 2895 2900 2907 2922 2929 2931 2935 2940 2945 2946 2950 2954 2961 2966 2972 2980 2982 2987 2988 2992 2994 2994 2995 2998 3000 3004 3006 3008 3010 3012 3013 3015 3016 3017 3017 3016 3017 3017 3016 3016
2799 2803 2807 2811 2819 2826 2834 2841 2850 2857 2863 2872 2882 2887 2898 2905 2912 2924 2925 2929 2934 2939 2942 2946 2950 2954 2959 2964 2969 2974 2976 2979 2982 2984 2987 2985 2987 2991 2994 2997 2999 3002 3003 3005 3006 3007 3008 3009 3009 3010 3010 3010 3010 3010
2811 2813 2817 2821 2826 2831 2836 2844 2853 2862 2873 2881 2890 2897 2905 2915 2923 2926 2923 2927 2932 2935 2938 2943 2948 2953 2956 2961 2964 2968 2972 2975 2974 2975 2979 2977 2982 2985 2988 2989 2991 2994 2996 2997 2999 3000 3001 3001 3002 3003 3003 3004 3005 3005
2826 2828 2832 2837 2839 2846 2851 2858 2866 2872 2883 2893 2897 2905 2912 2916 2918 2920 2921 2924 2927 2929 2933 2938 2944 2948 2953 2957 2960 2964 2964 2967 2970 2971 2971 2973 2975 2978 2980 2983 2986 2988 2989 2990 2992 2993 2994 2995 2996 2998 2998 2999 3000 3001
2841 2843 2845 2850 2856 2861 2864 2871 2878 2887 2892 2893 2897 2903 2909 2913 2916 2919 2921 2924 2927 2930 2933 2937 2942 2947 2949 2955 2957 2959 2961 2963 2964 2966 2968 2970 2973 2974 2977 2980 2982 2984 2986 2986 2987 2988 2989 2991 2992 2993 2994 2995 2996 2996
2853 2856 2860 2864 2868 2872 2875 2881 2888 2893 2896 2898 2900 2905 2910 2913 2915 2919 2922 2925 2927 2930 2934 2938 2944 2948 2950 2954 2956 2957 2957 2960 2961 2962 2964 2967 2969 2971 2972 2974 2977 2979 2981 2982 2983 2985 2986 2987 2988 2989 2990 2991 2992 2992
2865 2869 2871 2874 2878 2881 2885 2889 2893 2897 2899 2902 2906 2908 2911 2917 2920 2921 2924 2927 2930 2932 2936 2941 2945 2948 2950 2951 2952 2951 2954 2955 2957 2959 2961 2962 2964 2967 2969 2972 2974 2975 2977 2979 2981 2981 2982 2983 2985 2985 2986 2987 2988 2988
2874 2875 2879 2881 2884 2887 2890 2895 2899 2902 2905 2907 2910 2912 2915 2918 2920 2923 2925 2928 2931 2935 2937 2941 2944 2945 2947 2947 2949 2950 2951 2953 2955 2956 2959 2961 2963 2965 2966 2968 2970 2972 2974 2976 2977 2979 2979 2980 2981 2982 2982 2983 2983 2982
2879 2879 2883 2885 2888 2892 2895 2898 2902 2905 2907 2911 2914 2917 2918 2920 2922 2923 2925 2928 2931 2934 2938 2940 2942 2943 2944 2945 2947 2949 2951 2952 2953 2955 2957 2959 2961 2962 2964 2967 2969 2971 2972 2974 2975 2976 2976 2977 2977 2978 2978 2978 2976 2975
2883 2884 2885 2887 2890 2894 2897 2900 2902 2904 2909 2912 2913 2916 2918 2920 2922 2925 2926 2928 2931 2933 2936 2938 2941 2942 2944 2946 2947 2948 2950 2951 2952 2954 2956 2958 2960 2963 2965 2967 2968 2970 2971 2972 2973 2973 2973 2973 2973 2973 2972 2971 2970 2968
2887 2887 2887 2888 2891 2894 2897 2900 2904 2906 2910 2912 2915 2916 2917 2919 2921 2924 2926 2928 2930 2932 2934 2937 2939 2941 2943 2944 2946 2947 2949 2951 2953 2955 2957 2959 2961 2963 2964 2965 2966 2967 2968 2969 2969 2970 2969 2969 2968 2967 2965 2963 2961 2959
2892 2891 2891 2892 2893 2896 2897 2899 2902 2907 2910 2913 2916 2918 2919 2921 2923 2924 2927 2928 2930 2930 2933 2937 2940 2942 2944 2946 2947 2949 2951 2953 2954 2957 2958 2959 2960 2961 2962 2963 2964 2965 2966 2966 2965 2965 2964 2963 2962 2960 2958 2956 2953 2951
2896 2895 2895 2894 2895 2897 2899 2901 2904 2906 2911 2914 2917 2919 2921 2923 2924 2926 2927 2927 2929 2933 2937 2941 2943 2945 2946 2948 2949 2951 2953 2954 2956 2957 2958 2959 2960 2961 2961 2962 2962 2961 2961 2961 2960 2959 2958 2956 2954 2952 2950 2947 2945 2942
2899 2899 2899 2897 2899 2901 2905 2905 2907 2909 2914 2916 2919 2921 2923 2924 2926 2929 2928 2931 2933 2937 2940 2942 2944 2946 2948 2949 2950 2952 2954 2955 2956 2957 2957 2958 2958 2958 2958 2958 2958 2958 2957 2956 2954 2952 2950 2948 2946 2944 2941 2938 2936 2932
2902 2901 2900 2900 2902 2905 2908 2909 2911 2912 2915 2918 2920 2922 2925 2926 2928 2929 2931 2934 2937 2940 2942 2944 2945 2947 2949 2950 2951 2952 2953 2954 2954 2955 2955 2955 2955 2955 2954 2953 2952 2951 2950 2949 2947 2945 2943 2940 2937 2935 2932 2928 2925 2921
2905 2904 2905 2904 2906 2908 2910 2912 2913 2915 2917 2919 2921 2924 2926 2928 2929 2931 2934 2937 2938 2941 2943 2944 2946 2947 2948 2949 2949 2950 2950 2951 2951 2951 2951 2951 2950 2950 2949 2948 2947 2945 2943 2941 2939 2937 2934 2931 2928 2925 2921 2918 2914 2910
2903 2905 2907 2907 2908 2910 2910 2912 2914 2917 2919 2921 2923 2925 2927 2928 2930 2933 2936 2937 2939 2941 2943 2944 2945 2946 2946 2946 2947 2947 2947 2947 2947 2947 2947 2946 2946 2945 2944 2942 2940 2938 2936 2934 2931 2928 2925 2922 2918 2915 2911 2906 2902 2898
2905 2909 2909 2909 2909 2911 2912 2915 2917 2919 2920 2922 2924 2925 2927 2929 2931 2934 2936 2938 2940 2941 2942 2943 2943 2944 2944 2944 2944 2944 2944 2944 2943 2943 2942 2941 2940 2939 2938 2936 2933 2931 2928 2926 2922 2919 2915 2911 2907 2903 2899 2894 2890 2885
2909 2912 2913 2915 2915 2916 2916 2917 2919 2921 2922 2924 2925 2926 2927 2928 2932 2934 2936 2938 2939 2940 2941 2941 2942 2942 2942 2942 2942 2942 2941 2941 2940 2939 2938 2937 2935 2933 2931 2928 2925 2923 2920 2916 2913 2909 2905 2900 2896 2892 2887 2883 2879 2874
2915 2916 2918 2918 2919 2919 2920 2921 2922 2923 2925 2925 2926 2927 2928 2930 2932 2934 2936 2937 2938 2940 2940 2941 2942 2941 2941 2940 2940 2939 2938 2937 2937 2935 2934 2932 2930 2928 2925 2922 2918 2914 2910 2906 2902 2897 2893 2889 2884 2880 2876 2872 2868 2864
2919 2920 2920 2921 2921 2922 2923 2925 2926 2926 2927 2927 2928 2928 2930 2931 2933 2935 2936 2937 2938 2938 2940 2940 2939 2938 2937 2937 2936 2935 2934 2933 2931 2930 2927 2925 2922 2919 2916 2912 2908 2904 2900 2896 2892 2887 2883 2878 2874 2870 2865 2861 2857 2853
2923 2924 2924 2924 2924 2926 2927 2928 2929 2929 2929 2930 2930 2931 2932 2933 2934 2935 2935 2936 2936 2936 2937 2937 2936 2936 2935 2934 2933 2932 2930 2929 2926 2924 2921 2918 2914 2911 2907 2903 2899 2895 2891 2887 2882 2878 2874 2869 2864 2860 2856 2851 2847 2843
2927 2927 2928 2927 2927 2928 2930 2930 2930 2930 2931 2931 2931 2932 2932 2933 2933 2934 2934 2934 2934 2934 2934 2934 2933 2932 2932 2931 2930 2928 2926 2924 2921 2918 2914 2911 2907 2904 2900 2896 2892 2887 2882 2878 2873 2868 2864 2859 2855 2850 2846 2842 2838 2834
2929 2929 2929 2929 2929 2929 2930 2931 2931 2930 2930 2930 2930 2931 2930 2931 2931 2932 2932 2932 2932 2932 2932 2931 2931 2930 2929 2927 2925 2923 2920 2918 2915 2912 2909 2905 2901 2897 2893 2889 2884 2879 2874 2869 2864 2860 2855 2850 2846 2842 2837 2833 2830 2826